Weather in Bezheck

Russia / Tver Oblast     57°47′08″N   36°41′37″E
temp.,
°C
wind,
m/s
gust,
m/s
humid.,
%
clouds,
%
prec.,
mm/h
press.,
hPa
HPBL,
m
24 january, mon
mon2400:00−19sw2210098 0.0 103513
03:00−19ssw3210084 0.0 103528
06:00−18sw2310082 0.0 103536
09:00−16ssw369960 0.0 103573
12:00−11ssw49935 0.0 1034193
15:00−9ssw49895 0.0 1032237
18:00−11ssw511935 0.0 1031202
21:00−11ssw512905 0.0 1029220
25 january, tue
tue2500:00−11ssw514875 0.0 1027263
03:00−11ssw615847 0.0 1025298
06:00−10ssw6158396 0.0 1023332
09:00−10ssw61485100 0.0 1020352
12:00−8ssw61493100 0.2 1017402
15:00−7ssw51195100 0.9 1015426
18:00−7ssw4996100 1.7 1014351
21:00−7sw3696100 2.8 1013228
26 january, wed
wed2600:00−6w289799 0.8 1013246
03:00−5nnw61193100 1.1 1014439
06:00−9nnw5109499 0.1 1016288
09:00−13nw49958 0.1 1017149
12:00−13nnw38945 0.0 1018178
15:00−12nw23945 0.0 101848
18:00−18nw2210070 0.0 101911
21:00−21wnw1110086 0.0 10199
27 january, thu
thu2700:00−21sw11100100 0.0 10189
03:00−17s2298100 0.0 101731
06:00−14s3793100 0.0 1016116
09:00−13s4991100 0.0 1014180
12:00−10sse51288100 0.0 1013311
15:00−9sse51286100 0.0 1011407
18:00−9sse61389100 0.0 1009423
21:00−10s6129186 0.0 1007408
28 january, fri
fri2800:00−10sse51193100 0.0 1006348
03:00−10sse51193100 0.1 1005360
06:00−10sse51294100 0.0 1003327
09:00−9se61393100 0.1 1002370
12:00−8sse61293100 0.3 1001445
15:00−6se51092100 0.5 1000505
18:00−7se51094100 0.3 1000412
21:00−7se4895100 1.0 1001369